{"data":{"norad_id":59445,"epoch":"2026-05-24T23:41:53.971008Z","epoch_age_seconds":75375,"freshness":"FRESH","line1":"1 59445U 24066D   26144.98743022  .00001042  00000+0  10349-3 0  9993","line2":"2 59445  45.6220  38.4370 0003922 290.9152  69.1309 14.99022482116341","mean_motion":14.99022482,"eccentricity":0.0003922,"inclination_deg":45.622,"raan_deg":38.437,"arg_perigee_deg":290.9152,"mean_anomaly_deg":69.1309,"bstar":0.00010349,"rev_number":11634,"period_min":96.062601948354,"perigee_km":567.19024580045,"apogee_km":572.64029800253,"semimajor_km":6948.0522719015,"source":"CELESTRAK","updated_at":"2026-05-25T13:38:01.424790Z"}}